| time (UTC) | temp F | wind direction | speed knots | gust knots | rain 1hr in | rain 24hr in | rain mn in | humidity % | barometer mb |
| 20260504045023 | 40 | 0.0 | 0.0 | 0.00 | 0.00 | 0.00 | 84 | 1012.0 | |
| 20260504044031 | 40 | 0.0 | 0.0 | 0.00 | 0.00 | 0.00 | 84 | 1012.0 | |
| 20260504043020 | 41 | 0.0 | 0.0 | 0.00 | 0.00 | 0.00 | 82 | 1011.9 | |
| 20260504042028 | 41 | 0.0 | 0.0 | 0.00 | 0.00 | 0.00 | 80 | 1011.9 | |
| 20260504041056 | 42 | 0.0 | 0.0 | 0.00 | 0.00 | 0.00 | 79 | 1011.9 | |
| 20260504040025 | 43 | 0.0 | 0.0 | 0.00 | 0.00 | 0.00 | 77 | 1012.0 | |
| 20260504035053 | 43 | 0.0 | 0.0 | 0.00 | 0.00 | 0.00 | 76 | 1011.9 | |
| 20260504034023 | 43 | 0.0 | 0.0 | 0.00 | 0.00 | 0.00 | 74 | 1012.0 | |
| 20260504033031 | 44 | 0.0 | 0.0 | 0.00 | 0.00 | 0.00 | 72 | 1012.1 | |
| 20260504032021 | 45 | 0.0 | 0.0 | 0.00 | 0.00 | 0.00 | 71 | 1012.1 | |
| 20260504031028 | 46 | 0.0 | 0.0 | 0.00 | 0.00 | 0.00 | 69 | 1012.1 | |
| 20260504030037 | 47 | 0.0 | 0.0 | 0.00 | 0.00 | 0.00 | 67 | 1012.1 | |
| 20260504025026 | 47 | 270 | 0.0 | 0.9 | 0.00 | 0.00 | 0.00 | 66 | 1012.1 |
| 20260504024054 | 48 | 0.0 | 0.0 | 0.00 | 0.00 | 0.00 | 63 | 1012.1 | |
| 20260504023024 | 49 | 0.0 | 0.0 | 0.00 | 0.00 | 0.00 | 61 | 1012.1 | |
| 20260504022032 | 50 | 0.0 | 0.9 | 0.00 | 0.00 | 0.00 | 59 | 1012.0 | |
| 20260504021021 | 51 | 0.0 | 0.0 | 0.00 | 0.00 | 0.00 | 56 | 1012.0 | |
| 20260504020029 | 52 | 0.0 | 0.0 | 0.00 | 0.00 | 0.00 | 52 | 1011.9 | |
| 20260504015037 | 53 | 0.0 | 0.0 | 0.00 | 0.00 | 0.00 | 50 | 1011.8 | |
| 20260504014026 | 53 | 158 | 0.0 | 1.7 | 0.00 | 0.00 | 0.00 | 49 | 1011.8 |
| 20260504013034 | 53 | 0.0 | 0.0 | 0.00 | 0.00 | 0.00 | 48 | 1011.8 | |
| 20260504012029 | 54 | 0.0 | 0.0 | 0.00 | 0.00 | 0.00 | 47 | 1011.6 | |
| 20260504011034 | 54 | 315 | 0.0 | 1.7 | 0.00 | 0.00 | 0.00 | 46 | 1011.6 |
| 20260504010021 | 55 | 224 | 1.7 | 2.6 | 0.00 | 0.00 | 0.00 | 45 | 1011.5 |
| 20260504005029 | 55 | 271 | 1.7 | 2.6 | 0.00 | 0.00 | 0.00 | 45 | 1011.5 |
| 20260504004019 | 55 | 304 | 1.7 | 3.5 | 0.00 | 0.00 | 0.00 | 44 | 1011.4 |
| 20260504003027 | 55 | 265 | 1.7 | 3.5 | 0.00 | 0.00 | 0.00 | 44 | 1011.4 |
| 20260504002035 | 56 | 258 | 1.7 | 2.6 | 0.00 | 0.00 | 0.00 | 43 | 1011.3 |
| 20260504001024 | 56 | 280 | 1.7 | 4.3 | 0.00 | 0.00 | 0.00 | 42 | 1011.2 |
| 20260504000032 | 57 | 295 | 1.7 | 3.5 | 0.00 | 0.00 | 0.00 | 41 | 1011.2 |
| 20260503235042 | 57 | 261 | 2.6 | 4.3 | 0.00 | 0.00 | 0.00 | 40 | 1011.1 |
| 20260503234029 | 57 | 301 | 3.5 | 5.2 | 0.00 | 0.00 | 0.00 | 39 | 1011.0 |
| 20260503233039 | 58 | 306 | 4.3 | 7.8 | 0.00 | 0.00 | 0.00 | 39 | 1011.0 |
| 20260503232028 | 58 | 332 | 3.5 | 5.2 | 0.00 | 0.00 | 0.00 | 39 | 1011.0 |
| 20260503231034 | 58 | 283 | 2.6 | 3.5 | 0.00 | 0.00 | 0.00 | 39 | 1011.0 |
| 20260503230024 | 59 | 317 | 4.3 | 7.8 | 0.00 | 0.00 | 0.00 | 39 | 1010.9 |
| 20260503225032 | 59 | 263 | 3.5 | 7.8 | 0.00 | 0.00 | 0.00 | 39 | 1010.9 |
| 20260503224021 | 60 | 251 | 2.6 | 4.3 | 0.00 | 0.00 | 0.00 | 39 | 1010.9 |
| 20260503223049 | 60 | 284 | 4.3 | 6.1 | 0.00 | 0.00 | 0.00 | 39 | 1011.0 |
| 20260503222019 | 61 | 290 | 4.3 | 8.7 | 0.00 | 0.00 | 0.00 | 37 | 1011.0 |
| 20260503221027 | 59 | 267 | 3.5 | 5.2 | 0.00 | 0.00 | 0.00 | 40 | 1011.1 |
| 20260503220034 | 58 | 300 | 5.2 | 6.1 | 0.00 | 0.00 | 0.00 | 39 | 1011.1 |
| 20260503215023 | 59 | 295 | 3.5 | 4.3 | 0.00 | 0.00 | 0.00 | 40 | 1011.1 |
| 20260503214031 | 59 | 280 | 5.2 | 8.7 | 0.00 | 0.00 | 0.00 | 38 | 1011.1 |
| 20260503213021 | 59 | 284 | 3.5 | 6.1 | 0.00 | 0.00 | 0.00 | 39 | 1011.0 |
| 20260503212028 | 59 | 288 | 5.2 | 11.3 | 0.00 | 0.00 | 0.00 | 39 | 1011.0 |
| 20260503211036 | 60 | 289 | 6.1 | 8.7 | 0.00 | 0.00 | 0.00 | 37 | 1011.0 |
| 20260503210025 | 60 | 275 | 4.3 | 10.4 | 0.00 | 0.00 | 0.00 | 38 | 1011.0 |
| 20260503204022 | 58 | 225 | 3.5 | 6.1 | 0.00 | 0.00 | 0.00 | 39 | 1011.3 |
| 20260503203050 | 59 | 245 | 3.5 | 6.1 | 0.00 | 0.00 | 0.00 | 40 | 1011.3 |
| 20260503202120 | 59 | 285 | 5.2 | 9.6 | 0.00 | 0.00 | 0.00 | 38 | 1011.3 |
| 20260503201027 | 59 | 309 | 4.3 | 7.0 | 0.00 | 0.00 | 0.00 | 39 | 1011.5 |
| 20260503200036 | 59 | 269 | 3.5 | 5.2 | 0.00 | 0.00 | 0.00 | 38 | 1011.6 |
| 20260503195025 | 60 | 291 | 3.5 | 5.2 | 0.00 | 0.00 | 0.00 | 38 | 1011.8 |
| 20260503194033 | 61 | 331 | 5.2 | 7.0 | 0.00 | 0.00 | 0.00 | 37 | 1011.9 |
| 20260503193023 | 59 | 279 | 5.2 | 7.0 | 0.00 | 0.00 | 0.00 | 37 | 1012.1 |
| 20260503192030 | 58 | 286 | 4.3 | 7.0 | 0.00 | 0.00 | 0.00 | 38 | 1012.3 |
| 20260503191019 | 57 | 311 | 4.3 | 7.0 | 0.00 | 0.00 | 0.00 | 40 | 1012.4 |
| 20260503190027 | 59 | 327 | 5.2 | 8.7 | 0.00 | 0.00 | 0.00 | 38 | 1012.4 |
| 20260503185035 | 57 | 271 | 5.2 | 7.8 | 0.00 | 0.00 | 0.00 | 40 | 1012.6 |
| 20260503184107 | 57 | 293 | 5.2 | 12.2 | 0.00 | 0.00 | 0.00 | 39 | 1012.6 |
| 20260503183033 | 59 | 254 | 5.2 | 7.8 | 0.00 | 0.00 | 0.00 | 37 | 1012.6 |
| 20260503182022 | 60 | 298 | 6.1 | 11.3 | 0.00 | 0.00 | 0.00 | 38 | 1012.6 |
| 20260503181030 | 59 | 299 | 7.0 | 10.4 | 0.00 | 0.00 | 0.00 | 38 | 1012.7 |
| 20260503180019 | 60 | 292 | 6.1 | 9.6 | 0.00 | 0.00 | 0.00 | 37 | 1012.7 |
| 20260503175026 | 57 | 321 | 6.1 | 12.2 | 0.00 | 0.00 | 0.00 | 39 | 1013.0 |
| 20260503174034 | 57 | 288 | 5.2 | 9.6 | 0.00 | 0.00 | 0.00 | 38 | 1013.0 |
| 20260503173024 | 58 | 308 | 4.3 | 7.8 | 0.00 | 0.00 | 0.00 | 37 | 1013.0 |
| 20260503172032 | 59 | 292 | 5.2 | 9.6 | 0.00 | 0.00 | 0.00 | 36 | 1013.0 |
| 20260503171020 | 57 | 309 | 5.2 | 8.7 | 0.00 | 0.00 | 0.00 | 37 | 1013.2 |
| 20260503131023 | 47 | 321 | 5.2 | 7.0 | 0.00 | 0.00 | 0.00 | 55 | 1015.2 |
| 20260503130111 | 47 | 316 | 4.3 | 7.8 | 0.00 | 0.00 | 0.00 | 56 | 1015.4 |
| 20260503110114 | 32 | 300 | 0.9 | 1.7 | 0.00 | 0.00 | 0.00 | 98 | 1015.3 |
| 20260503081102 | 37 | 285 | 1.7 | 2.6 | 0.00 | 0.00 | 0.00 | 83 | 1014.5 |
| 20260503072024 | 37 | 270 | 0.9 | 2.6 | 0.00 | 0.00 | 0.00 | 82 | 1014.5 |
| 20260503071032 | 37 | 270 | 0.0 | 1.7 | 0.00 | 0.00 | 0.00 | 82 | 1014.5 |
| 20260503055022 | 38 | 275 | 1.7 | 3.5 | 0.00 | 0.00 | 0.00 | 81 | 1014.8 |
| 20260503054030 | 38 | 297 | 1.7 | 3.5 | 0.00 | 0.00 | 0.00 | 80 | 1014.9 |
| 20260503053019 | 38 | 278 | 1.7 | 3.5 | 0.00 | 0.00 | 0.00 | 80 | 1015.0 |
| 20260503052027 | 38 | 279 | 0.9 | 2.6 | 0.00 | 0.00 | 0.00 | 79 | 1015.0 |
| 20260503051055 | 38 | 310 | 1.7 | 2.6 | 0.00 | 0.00 | 0.00 | 79 | 1015.1 |
| 20260503050024 | 38 | 289 | 0.9 | 2.6 | 0.00 | 0.00 | 0.00 | 78 | 1015.1 |